DECAYED

STARLINK-1176, 45090 (Decayed)

Orbit data source: Space-Track

STARLINK-1176, 45090 was a payload satellite owned by SpaceX/Seattle (US) in LEO that was launched on Wed, 29 Jan 2020 UTC via an FALCON 9 launch vehicle from the Air Force Eastern Test Range (AFETR). Payload-class satellites include a variety of spacecraft equipped with specific instruments for various scientific and technological missions. These include communications satellites like Starlink; space stations such as the ISS; scientific satellites like the Hubble; Earth observation satellites from companies like Planet Labs, Umbra, and HawkEye 360; GPS; miniature CubeSats for education and research; and military/defense satellites.

Not visible in the next 10 days
Identifier
45090, 2020-006AY
Orbit
Decayed
Country
Flag of USUS
Related business
Manufacturer
SpaceX/Seattle
Mission
Decayed Commercial Communications
Bus & Motor
STARLINK, Unknown motor
Mass
260 kg wet, ~248 kg dry
Launch date (UTC)
2020-01-29 (6 years ago)
Launch vehicle
FALCON 9
Launch site
Air Force Eastern Test Range (AFETR)
Object type
Payload
Rocket body
Debris
Shape & HBR
Box + 1 Pan, 10.1 m
Radar Cross Section
13.562 m², Large (>1 m²)

Expand to show TLE details & history
Last TLE update: 6 months ago

TLE from 6 months ago
0 STARLINK-1176
1 45090U 20006AY  25306.32316933  .10844125  12463-4  58008-3 0  9991
2 45090  53.0335  24.9502 0002600 319.0822  41.0030 16.42454898318858
Epoch: 2025-11-02T07:45Z
TLE epoch observation values (Epoch: 2025-11-02T07:45:21.830Z)
Latitude
Longitude
-133.2313°
Altitude
158.926 km
Speed
7.813 km/s
True Right ascension
01h 39m 48s
True Declination
0° 00' 00"
Sunlit
Object was in full shadow at epoch
Visualization orbit readout
Latitude
Unknown
Longitude
Unknown
Altitude
Unknown
Speed
Unknown
Apparent Right ascension
Unknown
Apparent Declination
Unknown
Sunlit
N/A
Visualization observer readout
Local Sidereal Time
21:55:27
Azimuth
Unknown
Elevation
Unknown
Doppler factor
Unknown
Orbital elements
Apogee altitude
161.27 km
Perigee altitude
157.87 km
Semi-major axis
6,537.707 km
Eccentricity
0.00026
Inclination
53.0335°
RAAN
24.9502°
Arg. of periapsis
319.0822°
True anomaly
41.02255°
Mean anomaly
41.003°
Eccentric anomaly
41.01278°
Mean motion
4.10587 °/min
Orbital period
87.68 mins
BSTAR
0.00058008
Loading maneuver chart data...
Computing Atmospheric mass density...
Loading historical data...
Loading historical data...
Loading historical data...
Loading historical data...
Loading historical data...
Loading historical data...
Loading historical data...

Documentation

Showing up to 5 results
|